Wind_Speed
2 2 1 1 1 1 1 1 1 2 2 2 2 3 4 4 4 4 4 3 3 4 5 5 5 5 5 4 3 3 2 1 2 1 1 1 3 4 5 5 5 5 6
3 3 2 2 2 2 2 2 3 3 3 3 3 4 4 5 5 4 5 5 5 5 5 6 6 6 5 4 4 4 3 3 2 2 2 1 2 4 5 5 5 6 6
4 3 3 3 3 3 3 3 4 3 2 2 3 4 5 5 5 5 6 5 6 6 6 6 6 6 6 5 5 5 5 4 4 3 3 3 4 4 5 6 7 7 7
4 4 3 4 4 4 4 4 4 4 3 3 4 4 5 6 6 6 6 6 6 6 6 6 6 6 6 6 6 7 6 6 6 6 6 6 6 6 6 7 7 8 8
4 4 4 4 4 4 4 4 4 4 4 4 4 5 6 6 6 6 6 6 6 6 6 6 6 6 7 7 8 8 8 8 8 8 8 7 7 7 8 8 8 9 9
4 4 4 4 4 4 4 4 5 5 5 5 5 6 6 7 7 7 7 7 7 7 7 7 7 7 7 8 8 9 9 9 9 9 9 9 8 8 9 9 10 10 10
4 4 4 4 4 5 5 5 5 6 5 6 6 6 7 7 7 7 7 8 8 7 7 8 7 8 8 8 8 9 9 9 10 10 9 9 9 9 10 10 10 10 10
4 4 5 5 5 5 6 6 6 6 6 6 6 6 6 6 7 7 7 7 7 7 8 8 8 9 9 9 9 9 10 10 10 10 10 10 10 10 10 11 11 11 11
4 4 5 5 5 6 6 6 7 7 7 7 7 7 6 7 7 7 7 8 9 9 9 8 9 9 9 9 10 10 10 10 10 10 10 10 10 10 11 11 11 11 11
4 4 5 5 5 6 6 7 7 7 7 7 7 7 7 8 8 8 8 8 8 8 8 8 9 9 10 9 10 10 10 10 11 11 11 11 11 11 11 10 11 11 11
3 4 4 4 5 5 6 7 7 7 7 8 8 8 8 8 8 8 9 9 9 9 9 9 9 10 10 9 9 9 9 9 10 10 11 11 11 11 11 10 10 10 10
4 4 5 5 5 6 6 7 8 8 8 8 8 8 8 8 8 8 9 9 9 9 9 9 9 9 9 9 9 9 9 9 9 10 10 10 10 10 11 11 11 11 11
5 5 5 6 6 7 8 8 9 9 9 9 9 9 9 9 8 8 8 8 9 9 9 10 10 10 9 9 8 9 8 9 9 9 9 9 9 10 10 10 10 10 11
5 5 5 6 6 7 8 8 9 9 9 9 9 9 9 9 8 8 8 8 9 9 9 9 10 9 9 9 8 9 9 9 9 9 10 9 9 9 9 9 9 10 10
5 6 6 7 7 7 7 8 8 9 9 9 8 9 9 8 8 8 8 8 8 9 9 9 9 9 8 8 8 8 9 9 9 10 10 10 10 10 10 10 10 10 10
6 6 7 7 7 7 7 7 8 8 9 9 8 8 8 8 8 8 8 9 8 9 9 9 9 9 9 9 9 9 9 9 10 10 10 10 10 11 12 12 11 11 11
7 7 7 7 7 7 6 6 7 8 8 9 8 8 9 8 9 9 9 9 9 9 9 9 9 10 10 10 10 10 10 10 10 11 11 11 11 11 12 12 11 11 11
7 7 7 7 7 7 7 7 7 7 7 8 8 8 9 9 9 9 9 9 9 9 9 9 10 10 11 11 11 11 11 11 11 10 11 11 11 12 11 11 11 11 11
7 7 7 7 6 7 7 7 7 8 8 8 8 9 9 9 10 9 10 10 9 9 10 10 11 11 11 11 11 11 11 11 11 11 11 11 12 12 12 12 12 11 11
7 7 7 7 8 7 8 8 7 8 8 9 9 9 9 10 10 10 10 10 10 10 10 11 11 11 11 11 12 12 12 12 11 11 11 12 12 13 13 13 12 12 12
8 9 9 8 8 8 8 8 8 7 8 8 9 9 9 10 10 10 10 11 11 11 11 11 11 11 12 12 12 12 12 12 12 12 12 12 13 13 13 13 13 13 13
10 10 10 9 9 9 9 9 9 9 9 9 9 9 10 10 11 11 11 12 12 12 13 13 13 13 13 12 12 12 13 13 13 13 13 13 14 14 14 14 14 14 14
10 11 11 10 10 10 10 9 9 9 10 10 10 11 11 12 12 13 13 13 13 13 14 14 14 14 14 13 13 13 14 14 14 14 14 14 14 14 14 14 14 14 14
11 11 11 11 11 11 11 10 10 10 10 11 11 12 13 13 14 14 14 14 14 14 14 14 14 14 14 14 14 15 14 14 14 15 15 15 14 14 14 15 15 15 15
12 12 12 12 12 12 11 11 11 11 12 12 13 13 14 14 15 15 15 15 15 15 15 15 14 14 14 15 15 15 15 15 15 15 15 15 15 15 15 15 15 15 15
13 13 13 13 13 13 13 13 13 13 14 14 14 14 15 15 16 16 15 16 16 16 16 15 16 15 15 16 16 16 16 16 16 16 16 15 15 15 15 15 15 15 15
Wind_Direction
220 212 230 248 270 289 316 323 311 315 312 300 307 311 306 310 313 314 311 312 310 315 311 308 309 313 322 326 334 344 352 323 283 294 323 207 204 213 220 228 240 243 245
229 221 238 253 270 286 299 307 309 311 291 278 296 305 301 303 304 307 309 307 304 305 305 300 296 305 313 306 306 309 304 301 297 294 288 235 220 217 224 240 249 257 255
234 237 249 258 268 282 293 300 306 313 295 277 288 291 291 292 297 300 302 303 298 297 300 298 294 297 306 306 304 300 292 288 287 287 283 274 255 247 247 255 259 262 262
237 245 256 265 274 281 291 297 298 284 276 283 278 282 286 287 290 291 294 297 297 297 294 297 291 294 304 310 309 304 294 290 288 287 284 279 268 259 260 263 264 266 267
232 243 250 266 280 283 285 291 293 286 280 284 282 276 277 280 290 293 290 294 294 293 293 293 289 291 297 301 302 300 295 291 288 289 286 281 272 268 266 268 269 268 269
233 241 249 261 273 283 290 290 295 293 284 286 282 277 283 285 287 290 288 287 286 286 291 287 286 286 289 295 299 298 296 293 287 283 282 282 277 271 270 270 269 269 270
240 244 249 260 266 276 283 287 289 287 286 287 281 280 285 286 286 285 292 290 290 289 291 291 289 289 288 292 296 295 294 293 289 286 283 279 276 275 275 272 270 269 269
248 249 251 259 266 274 278 280 282 283 282 283 281 281 285 289 283 282 287 293 294 293 293 290 290 288 289 294 293 292 289 286 285 282 279 276 274 276 276 272 270 269 268
258 263 264 267 270 276 276 277 279 279 278 279 276 274 282 289 284 280 284 291 293 293 292 290 288 287 289 291 290 287 286 283 280 280 278 273 274 277 274 271 269 268 269
261 267 267 269 271 276 276 276 277 277 276 274 275 274 280 286 286 279 281 284 290 290 287 288 289 284 283 287 287 285 286 280 280 279 277 274 273 272 270 270 268 268 267
266 268 268 270 270 274 275 274 271 272 275 270 269 274 278 284 285 280 280 279 283 286 289 290 288 287 288 291 292 286 283 279 277 276 277 274 272 272 269 269 269 272 271
271 273 274 275 275 277 279 274 269 266 268 270 270 273 276 279 282 283 282 282 284 287 290 290 292 294 293 293 290 286 284 277 274 275 275 272 273 275 272 270 273 275 276
274 275 277 277 278 280 279 278 274 267 266 269 270 271 272 276 279 282 282 283 289 292 293 293 293 295 297 296 293 293 290 283 282 278 277 276 274 276 270 267 270 275 275
280 279 279 281 284 285 281 279 275 270 269 269 269 267 268 270 273 276 281 284 288 292 294 294 294 295 297 300 300 299 294 288 286 282 276 279 280 276 273 274 272 279 284
283 282 284 284 289 289 284 278 274 270 268 270 271 271 272 270 271 276 280 285 286 286 289 291 289 289 293 294 297 295 291 287 283 285 284 282 280 275 275 275 275 279 281
283 281 283 286 289 291 289 285 280 272 268 269 270 271 270 270 272 275 277 282 283 284 284 283 282 284 288 291 294 293 288 283 281 282 281 279 279 277 275 275 274 274 276
281 282 282 286 289 294 295 292 285 276 269 269 271 272 270 269 271 273 275 279 278 278 280 279 281 284 286 290 292 290 288 288 287 286 281 280 280 280 280 277 273 271 271
280 282 283 286 289 294 297 292 287 284 275 273 273 274 273 273 276 279 278 280 282 279 277 279 281 283 287 289 292 290 288 288 289 287 285 284 284 284 283 280 274 270 268
278 281 284 287 286 289 292 292 292 289 282 276 276 278 279 280 279 283 287 285 286 282 280 281 282 283 286 287 289 289 288 290 288 286 284 285 285 284 284 283 277 271 268
275 277 280 284 287 290 294 293 291 289 288 282 279 282 283 281 280 285 289 289 289 286 285 285 286 286 284 284 286 289 290 290 288 284 284 285 284 283 282 280 276 272 268
271 272 275 278 281 286 290 293 291 287 286 282 279 280 282 280 280 284 288 291 292 290 287 287 287 285 284 284 285 286 288 290 289 287 286 286 283 281 279 275 272 269 267
269 269 270 272 274 278 283 286 287 286 284 282 280 280 278 278 280 282 285 288 290 289 287 287 287 286 284 284 285 288 288 287 287 287 287 287 285 281 277 272 269 268 267
264 265 267 270 271 275 278 280 283 283 283 282 281 279 279 278 280 282 283 285 287 286 285 284 284 285 285 287 287 288 288 288 288 288 287 286 284 280 274 270 267 268 269
264 266 266 267 269 272 275 276 279 282 281 279 281 283 283 283 283 283 283 284 285 286 284 282 281 283 286 288 288 287 286 286 288 288 288 286 282 277 274 271 267 267 268
262 263 264 265 268 271 273 274 276 280 282 282 280 282 284 284 284 285 287 286 285 287 287 286 286 286 287 288 287 286 286 285 285 286 287 287 283 278 275 273 270 269 268
261 262 263 266 268 270 270 274 276 278 282 282 281 281 282 283 284 285 286 287 285 284 285 285 284 285 287 288 287 286 286 285 284 284 285 286 283 280 277 274 272 270 269
Height
5868 5868 5868 5869 5869 5869 5869 5869 5868 5868 5868 5867 5868 5868 5868 5868 5869 5869 5869 5869 5869 5869 5869 5868 5868 5867 5867 5867 5866 5865 5865 5866 5866 5866 5865 5864 5864 5866 5868 5869 5870 5871 5871
5868 5868 5868 5868 5869 5869 5868 5868 5868 5867 5865 5865 5867 5867 5868 5868 5868 5868 5868 5868 5869 5868 5868 5868 5868 5867 5867 5867 5867 5866 5866 5866 5866 5866 5866 5865 5865 5866 5868 5869 5869 5870 5870
5867 5867 5868 5868 5868 5868 5868 5867 5867 5866 5864 5865 5866 5867 5867 5867 5867 5867 5868 5868 5868 5867 5867 5867 5867 5867 5866 5866 5866 5866 5866 5867 5867 5867 5867 5867 5867 5867 5868 5868 5868 5869 5869
5866 5866 5867 5867 5867 5867 5867 5867 5866 5866 5866 5866 5866 5866 5866 5866 5867 5867 5867 5867 5867 5866 5866 5866 5866 5866 5866 5866 5866 5866 5866 5866 5866 5867 5866 5867 5867 5867 5867 5867 5868 5868 5867
5865 5866 5866 5866 5866 5866 5866 5866 5866 5866 5866 5866 5866 5865 5865 5866 5866 5866 5866 5866 5866 5866 5866 5865 5865 5865 5865 5866 5865 5865 5865 5865 5866 5866 5866 5866 5866 5866 5866 5866 5866 5866 5866
5864 5865 5865 5865 5865 5865 5865 5865 5865 5865 5865 5865 5865 5865 5865 5865 5865 5865 5865 5865 5864 5864 5864 5864 5864 5864 5864 5864 5865 5864 5864 5864 5865 5865 5865 5865 5865 5864 5864 5864 5864 5864 5864
5864 5864 5864 5864 5864 5864 5865 5864 5864 5864 5864 5864 5864 5864 5864 5864 5864 5864 5864 5864 5863 5863 5863 5863 5863 5863 5863 5863 5863 5863 5863 5863 5863 5863 5863 5863 5863 5863 5863 5863 5863 5862 5862
5863 5863 5863 5863 5863 5863 5863 5863 5863 5863 5863 5863 5863 5863 5863 5863 5863 5863 5863 5863 5862 5862 5862 5862 5862 5862 5862 5862 5861 5861 5861 5861 5861 5861 5861 5861 5861 5861 5861 5861 5861 5860 5860
5862 5862 5862 5862 5862 5862 5862 5862 5862 5862 5862 5862 5862 5862 5862 5862 5862 5862 5862 5862 5861 5861 5860 5860 5860 5860 5860 5860 5860 5859 5859 5859 5859 5859 5859 5859 5859 5859 5858 5858 5858 5858 5858
5861 5861 5861 5861 5861 5861 5861 5861 5860 5860 5860 5860 5860 5860 5860 5860 5860 5860 5860 5860 5860 5859 5858 5858 5859 5858 5858 5858 5858 5858 5857 5857 5857 5857 5857 5857 5857 5856 5856 5856 5856 5856 5856
5860 5860 5860 5860 5860 5860 5859 5859 5859 5859 5859 5859 5859 5859 5859 5859 5859 5859 5859 5859 5858 5858 5858 5857 5857 5857 5856 5856 5856 5856 5855 5855 5855 5855 5855 5855 5854 5854 5854 5854 5854 5853 5853
5859 5859 5859 5858 5858 5858 5858 5857 5857 5857 5857 5857 5857 5857 5857 5857 5857 5857 5857 5857 5857 5856 5856 5856 5855 5855 5855 5854 5854 5854 5853 5853 5853 5853 5852 5852 5852 5852 5851 5851 5851 5851 5851
5857 5857 5857 5857 5857 5856 5856 5855 5855 5855 5855 5855 5855 5855 5856 5856 5856 5856 5855 5855 5855 5855 5855 5854 5854 5854 5853 5853 5852 5852 5851 5851 5851 5850 5850 5850 5850 5849 5848 5849 5849 5848 5848
5856 5856 5855 5855 5855 5854 5854 5853 5853 5853 5853 5853 5853 5854 5854 5854 5854 5854 5854 5854 5854 5854 5853 5853 5852 5852 5851 5851 5850 5850 5849 5849 5849 5848 5848 5848 5848 5847 5846 5846 5846 5846 5846
5854 5854 5854 5854 5853 5852 5851 5851 5850 5851 5851 5851 5852 5852 5852 5852 5852 5852 5852 5852 5852 5852 5851 5851 5850 5850 5849 5849 5848 5848 5847 5847 5847 5846 5846 5845 5845 5845 5845 5844 5844 5844 5844
5853 5852 5852 5852 5851 5850 5850 5849 5849 5849 5849 5849 5850 5850 5850 5850 5850 5850 5850 5850 5850 5850 5849 5849 5849 5848 5847 5847 5846 5845 5845 5844 5844 5844 5843 5843 5843 5842 5842 5842 5842 5842 5841
5851 5851 5850 5850 5849 5849 5848 5848 5847 5847 5847 5848 5848 5848 5848 5848 5848 5848 5848 5848 5847 5847 5847 5847 5846 5846 5845 5844 5844 5843 5843 5842 5841 5841 5840 5840 5840 5839 5839 5839 5839 5839 5839
5849 5849 5849 5848 5848 5847 5847 5846 5846 5846 5846 5846 5846 5846 5846 5846 5846 5846 5846 5845 5845 5845 5844 5844 5844 5843 5843 5842 5841 5840 5840 5839 5839 5838 5838 5837 5837 5837 5836 5836 5836 5835 5836
5848 5848 5847 5847 5847 5846 5846 5845 5845 5845 5844 5844 5844 5844 5844 5844 5844 5844 5843 5843 5843 5842 5842 5842 5841 5841 5840 5840 5839 5838 5837 5836 5836 5835 5835 5834 5834 5833 5833 5833 5833 5833 5833
5846 5846 5846 5845 5845 5845 5844 5844 5843 5843 5843 5843 5842 5842 5842 5842 5842 5842 5841 5841 5840 5840 5839 5839 5838 5838 5837 5837 5836 5835 5834 5833 5833 5832 5832 5831 5831 5830 5830 5829 5829 5829 5829
5843 5843 5843 5843 5843 5843 5842 5842 5842 5841 5841 5841 5840 5840 5840 5840 5840 5839 5839 5838 5838 5837 5837 5836 5835 5835 5834 5834 5833 5832 5832 5831 5830 5829 5828 5828 5827 5827 5826 5826 5826 5826 5826
5841 5841 5841 5841 5841 5840 5840 5840 5840 5839 5839 5839 5838 5838 5838 5837 5837 5837 5836 5836 5835 5834 5834 5833 5832 5832 5831 5831 5830 5830 5829 5828 5827 5826 5825 5824 5823 5823 5822 5822 5822 5822 5822
5838 5838 5838 5838 5838 5838 5838 5838 5837 5837 5837 5836 5836 5835 5835 5835 5834 5834 5833 5833 5832 5831 5830 5830 5829 5828 5828 5827 5827 5826 5825 5824 5823 5823 5821 5820 5819 5819 5818 5818 5818 5818 5818
5835 5835 5835 5835 5835 5835 5835 5834 5834 5834 5834 5834 5833 5833 5832 5832 5831 5831 5830 5829 5829 5828 5827 5826 5826 5825 5824 5823 5823 5822 5822 5821 5820 5819 5818 5817 5816 5815 5814 5814 5814 5814 5814
5831 5831 5831 5832 5832 5832 5831 5831 5831 5831 5831 5831 5830 5829 5829 5828 5828 5827 5826 5826 5825 5824 5823 5823 5822 5821 5821 5820 5819 5818 5818 5817 5816 5815 5814 5813 5811 5810 5810 5810 5810 5810 5810
5827 5827 5828 5828 5828 5828 5828 5828 5828 5828 5827 5827 5826 5826 5825 5825 5824 5823 5823 5822 5821 5820 5820 5819 5818 5817 5817 5816 5815 5814 5813 5812 5811 5811 5809 5808 5807 5807 5806 5806 5806 5806 5806